�N����,����,�~����,�C��,���x,�C��,����,���ϕ���,�ő�u�ԕ���,�ő厞����,���˗�,�I�_���x,�n�����x,�ő啗���N��,DTYPE
"19/08/26","00:10",0.0,21.0,92.7,1007.6,311.7,1.1,2.0,335.1,0.00,19.8,25.8,"00:00:32",1
"19/08/26","00:20",0.0,21.0,93.0,1007.8,298.2,0.8,1.3,347.4,0.00,19.9,25.5,"00:19:44",1
"19/08/26","00:30",0.0,20.9,93.1,1008.1,308.0,1.0,1.6,327.0,0.00,19.8,25.5,"00:20:02",1
"19/08/26","00:40",0.0,20.9,93.2,1008.1,307.4,1.2,1.9,316.7,0.00,19.8,25.5,"00:32:00",1
"19/08/26","00:50",0.0,21.0,93.2,1007.8,316.6,1.7,2.5,315.5,0.00,19.9,25.4,"00:44:56",1
"19/08/26","01:00",0.0,21.1,93.2,1007.8,317.8,1.6,2.5,313.6,0.00,20.0,25.2,"00:50:16",1
"19/08/26","01:10",0.0,20.9,93.3,1008.1,308.3,1.1,1.8,327.8,0.00,19.8,25.4,"01:05:44",1
"19/08/26","01:20",0.0,20.8,93.2,1008.1,304.7,1.1,2.1,312.3,0.00,19.7,25.2,"01:14:16",1
"19/08/26","01:30",0.0,20.8,93.3,1007.8,324.0,1.7,2.6,333.3,0.00,19.7,25.1,"01:24:48",1
"19/08/26","01:40",0.0,20.7,93.3,1007.8,288.0,1.0,2.0,328.5,0.00,19.6,24.9,"01:30:24",1
"19/08/26","01:50",0.0,20.5,93.3,1008.1,291.7,1.0,1.4,324.9,0.00,19.4,24.9,"01:47:52",1
"19/08/26","02:00",0.0,20.5,93.4,1008.1,327.4,1.3,1.9,338.8,0.00,19.4,25.1,"01:55:04",1
"19/08/26","02:10",0.0,20.4,93.5,1007.8,321.1,1.2,1.8,329.7,0.00,19.4,24.9,"02:00:48",1
"19/08/26","02:20",0.0,20.3,93.7,1007.8,302.0,0.8,1.2,318.5,0.00,19.3,24.9,"02:10:56",1
"19/08/26","02:30",0.0,20.2,93.6,1008.1,311.8,1.0,1.7,336.6,0.00,19.2,24.8,"02:23:36",1
"19/08/26","02:40",0.0,20.2,94.1,1008.3,319.4,1.1,2.0,314.3,0.00,19.3,24.8,"02:38:40",1
"19/08/26","02:50",0.0,20.4,94.2,1008.1,328.7,1.5,2.1,331.9,0.00,19.5,24.7,"02:40:32",1
"19/08/26","03:00",0.0,20.4,93.9,1007.8,329.2,1.2,1.9,338.4,0.00,19.4,24.6,"02:51:12",1
"19/08/26","03:10",0.0,20.3,94.1,1008.1,308.1,0.8,1.6,318.7,0.00,19.4,24.7,"03:08:56",1
"19/08/26","03:20",0.0,20.3,94.0,1007.8,298.7,0.8,1.4,305.8,0.00,19.3,24.7,"03:15:52",1
"19/08/26","03:30",0.0,20.1,94.0,1007.8,314.8,0.8,1.6,329.9,0.00,19.1,24.8,"03:20:40",1
"19/08/26","03:40",0.0,20.0,94.2,1007.8,299.6,1.1,2.7,326.5,0.00,19.1,24.6,"03:39:52",1
"19/08/26","03:50",0.0,20.2,94.2,1007.8,331.1,1.7,3.1,332.9,0.00,19.3,24.3,"03:47:52",1
"19/08/26","04:00",0.0,20.4,94.0,1007.8,334.7,2.5,4.0,341.2,0.00,19.4,24.7,"03:54:00",1
"19/08/26","04:10",0.0,20.2,93.5,1008.1,322.3,1.5,2.4,323.9,0.00,19.2,24.6,"04:05:58",1
"19/08/26","04:20",0.0,20.0,93.8,1008.3,325.7,1.3,2.4,339.7,0.00,19.0,24.5,"04:19:12",1
"19/08/26","04:30",0.0,19.8,94.1,1008.1,326.2,1.6,2.1,330.3,0.00,18.9,24.2,"04:23:44",1
"19/08/26","04:40",0.0,19.7,94.1,1008.1,308.9,1.2,2.6,339.5,0.00,18.8,24.4,"04:33:28",1
"19/08/26","04:50",0.0,19.5,94.2,1007.8,291.3,0.8,1.2,311.6,0.00,18.6,24.5,"04:48:24",1
"19/08/26","05:00",0.0,19.5,94.4,1007.8,313.4,0.7,1.4,287.1,0.00,18.6,24.3,"04:50:16",1
"19/08/26","05:10",0.0,19.3,94.2,1008.3,332.7,1.2,1.7,350.8,0.00,18.4,24.2,"05:04:08",1
"19/08/26","05:20",0.0,19.1,94.9,1008.3,286.5,0.8,1.6,241.3,0.00,18.3,24.2,"05:19:36",1
"19/08/26","05:30",0.0,19.2,95.0,1008.1,296.3,1.0,1.8,341.7,0.00,18.4,24.1,"05:29:36",1
"19/08/26","05:40",0.0,19.1,94.6,1008.3,316.2,1.2,1.6,313.2,0.00,18.3,24.2,"05:32:08",1
"19/08/26","05:50",0.0,19.0,94.9,1008.3,297.6,0.6,1.0,343.8,0.00,18.2,24.0,"05:42:00",1
"19/08/26","06:00",0.0,19.0,95.0,1008.6,314.8,1.2,2.0,323.0,0.00,18.2,24.0,"05:52:32",1
"19/08/26","06:10",0.0,19.1,95.2,1008.8,317.0,1.1,2.5,332.8,0.00,18.4,24.0,"06:06:08",1
"19/08/26","06:20",0.0,19.1,95.0,1008.8,314.0,1.0,1.7,330.1,0.00,18.3,24.0,"06:12:24",1
"19/08/26","06:30",0.0,19.3,95.0,1008.8,314.5,0.8,1.6,329.8,0.00,18.5,23.8,"06:24:16",1
"19/08/26","06:40",0.0,19.7,94.8,1008.6,338.2,1.1,2.1,344.5,0.00,18.9,23.9,"06:33:36",1
"19/08/26","06:50",0.0,20.1,94.5,1008.8,324.0,1.3,2.9,322.2,0.01,19.2,24.0,"06:49:44",1
"19/08/26","07:00",0.2,20.6,93.9,1008.8,309.3,1.1,2.6,328.3,0.01,19.6,23.7,"06:50:16",1
"19/08/26","07:10",0.0,20.9,94.1,1008.6,326.9,1.6,3.2,335.2,0.03,20.0,23.8,"07:02:48",1
"19/08/26","07:20",0.0,21.3,93.3,1008.3,332.3,1.8,3.1,335.0,0.05,20.2,23.8,"07:18:16",1
"19/08/26","07:30",0.0,22.0,91.9,1008.3,341.3,1.8,3.6,340.6,0.07,20.7,23.9,"07:23:04",1
"19/08/26","07:40",0.0,22.3,89.9,1008.3,12.6,1.0,2.4,14.8,0.09,20.6,23.8,"07:32:48",1
"19/08/26","07:50",0.0,22.8,87.8,1008.6,21.7,1.1,2.1,61.1,0.12,20.7,24.0,"07:48:08",1
"19/08/26","08:00",0.0,23.2,85.1,1008.6,0.5,0.6,1.8,331.1,0.14,20.6,24.2,"07:54:24",1
"19/08/26","08:10",0.0,23.8,85.1,1008.8,118.3,0.6,1.7,129.5,0.16,21.2,24.2,"08:01:12",1
"19/08/26","08:20",0.0,24.1,83.5,1009.0,87.1,0.6,1.4,103.1,0.19,21.2,24.2,"08:10:08",1
"19/08/26","08:30",0.0,24.4,82.1,1009.0,342.3,1.2,3.2,344.5,0.21,21.2,24.4,"08:23:12",1
"19/08/26","08:40",0.0,24.6,82.1,1008.8,309.2,1.1,2.4,339.0,0.24,21.4,24.4,"08:32:48",1
"19/08/26","08:50",0.0,24.2,81.4,1008.3,290.2,0.8,2.0,266.2,0.26,20.9,24.6,"08:40:02",1
"19/08/26","09:00",0.0,24.7,81.8,1008.1,296.3,0.8,2.2,359.3,0.29,21.4,24.6,"08:57:12",1
"19/08/26","09:10",0.0,25.4,79.7,1007.8,294.2,0.7,1.7,350.1,0.31,21.7,24.9,"09:05:36",1
"19/08/26","09:20",0.0,25.6,78.8,1007.4,243.6,1.0,2.7,275.5,0.34,21.7,25.1,"09:13:44",1
"19/08/26","09:30",0.0,25.9,75.4,1007.6,299.9,0.8,2.8,354.4,0.36,21.3,25.2,"09:23:20",1
"19/08/26","09:40",0.0,25.6,75.1,1007.6,274.0,0.8,1.7,359.7,0.34,20.9,25.2,"09:32:16",1
"19/08/26","09:50",0.0,26.6,75.4,1007.4,263.7,1.0,1.9,332.8,0.40,21.9,25.2,"09:46:48",1
"19/08/26","10:00",0.0,26.8,72.3,1007.8,268.8,0.8,2.2,347.2,0.34,21.4,25.6,"09:57:28",1
"19/08/26","10:10",0.0,27.1,69.6,1008.1,315.8,0.8,1.8,345.1,0.40,21.1,25.8,"10:00:16",1
"19/08/26","10:20",0.0,27.4,69.8,1008.1,272.3,1.0,2.7,284.5,0.46,21.4,25.7,"10:15:04",1
"19/08/26","10:30",0.0,27.3,70.8,1008.3,276.9,1.1,3.4,339.4,0.48,21.6,26.2,"10:23:28",1
"19/08/26","10:40",0.0,27.7,68.6,1008.1,271.2,0.7,2.1,12.2,0.48,21.4,26.2,"10:33:12",1
"19/08/26","10:50",0.0,27.9,67.1,1008.3,221.9,1.1,3.2,224.3,0.44,21.3,26.3,"10:44:56",1
"19/08/26","11:00",0.0,28.2,67.5,1008.3,260.9,1.1,3.7,229.1,0.41,21.7,26.6,"10:54:00",1
"19/08/26","11:10",0.0,27.6,65.7,1008.1,231.3,1.2,4.1,185.8,0.37,20.6,26.7,"11:07:44",1
"19/08/26","11:20",0.0,29.0,66.6,1007.6,235.5,1.1,2.7,319.0,0.45,22.2,26.9,"11:12:00",1
"19/08/26","11:30",0.0,29.5,64.1,1008.1,128.7,0.7,2.0,217.1,0.59,22.0,27.1,"11:21:20",1
"19/08/26","11:40",0.0,27.8,65.2,1008.3,198.7,1.2,3.2,223.9,0.11,20.7,27.2,"11:31:20",1
"19/08/26","11:50",0.0,29.5,60.4,1007.8,233.7,0.6,2.0,214.5,0.53,21.1,27.6,"11:48:00",1
"19/08/26","12:00",0.0,29.9,56.8,1008.6,279.7,0.8,2.7,352.6,0.61,20.4,27.4,"11:52:08",1
"19/08/26","12:10",0.0,30.1,59.6,1008.3,194.1,0.6,1.8,225.1,0.61,21.4,27.7,"12:00:48",1
"19/08/26","12:20",0.0,28.6,61.3,1007.8,277.1,1.2,4.4,357.8,0.30,20.5,27.7,"12:13:36",1
"19/08/26","12:30",0.0,30.1,57.8,1007.8,289.0,0.8,2.4,308.6,0.56,20.9,28.1,"12:29:52",1
"19/08/26","12:40",0.0,30.5,54.6,1008.3,213.8,0.8,2.8,347.9,0.62,20.4,28.2,"12:30:02",1
"19/08/26","12:50",0.0,30.1,53.0,1007.8,315.6,1.0,2.5,318.3,0.62,19.5,28.3,"12:40:08",1
"19/08/26","13:00",0.0,30.2,55.9,1007.6,280.2,1.1,2.9,344.3,0.58,20.5,28.5,"12:53:04",1
"19/08/26","13:10",0.0,30.3,50.9,1007.6,283.9,1.1,3.7,325.0,0.61,19.0,28.9,"13:05:04",1
"19/08/26","13:20",0.0,31.0,51.9,1007.6,182.5,0.8,2.8,195.4,0.62,20.0,29.0,"13:13:52",1
"19/08/26","13:30",0.0,30.7,50.6,1007.6,275.8,0.8,2.0,357.3,0.56,19.3,29.1,"13:20:24",1
"19/08/26","13:40",0.0,30.2,54.4,1007.8,137.1,0.6,1.6,29.5,0.34,20.0,29.2,"13:33:44",1
"19/08/26","13:50",0.0,29.5,55.6,1007.4,271.5,1.0,2.1,342.4,0.11,19.7,29.2,"13:42:00",1
"19/08/26","14:00",0.0,31.2,51.8,1006.9,206.4,1.1,2.8,223.8,0.42,20.2,29.2,"13:51:36",1
"19/08/26","14:10",0.0,31.2,54.5,1007.4,184.8,1.7,3.7,211.5,0.60,21.0,29.2,"14:08:48",1
"19/08/26","14:20",0.0,29.4,57.3,1006.9,181.7,1.8,4.4,222.6,0.27,20.1,29.0,"14:12:40",1
"19/08/26","14:30",0.0,30.4,56.7,1006.7,181.0,1.2,2.8,220.4,0.30,20.9,29.2,"14:20:32",1
"19/08/26","14:40",0.0,31.1,52.4,1006.7,187.7,1.2,3.3,214.1,0.52,20.2,29.2,"14:39:52",1
"19/08/26","14:50",0.0,30.8,54.7,1006.9,165.5,1.3,3.7,204.0,0.50,20.7,29.2,"14:46:16",1
"19/08/26","15:00",0.0,32.0,51.5,1007.6,75.4,0.5,1.9,199.7,0.51,20.8,29.3,"14:50:24",1
"19/08/26","15:10",0.0,31.6,53.5,1007.4,183.1,1.1,2.6,117.7,0.50,21.0,29.1,"15:09:04",1
"19/08/26","15:20",0.0,31.4,51.0,1007.4,164.4,1.5,3.5,119.9,0.45,20.1,29.2,"15:11:12",1
"19/08/26","15:30",0.0,31.3,52.0,1007.6,181.0,1.2,3.3,220.0,0.47,20.3,29.1,"15:25:36",1
"19/08/26","15:40",0.0,31.1,51.3,1007.4,222.3,1.0,2.4,195.5,0.28,19.9,29.1,"15:32:48",1
"19/08/26","15:50",0.0,31.5,55.6,1007.1,108.6,1.0,2.2,198.9,0.34,21.6,29.4,"15:40:08",1
"19/08/26","16:00",0.0,30.5,58.0,1006.9,81.4,1.0,2.1,35.6,0.19,21.3,29.2,"15:52:56",1
"19/08/26","16:10",0.0,31.4,56.9,1006.4,81.6,1.2,2.2,57.8,0.37,21.9,29.4,"16:04:24",1
"19/08/26","16:20",0.0,30.4,56.3,1006.4,71.3,1.0,2.2,98.9,0.18,20.8,29.3,"16:13:12",1
"19/08/26","16:30",0.0,30.7,55.8,1006.0,77.0,1.1,2.1,83.7,0.15,20.9,29.2,"16:28:32",1
"19/08/26","16:40",0.0,31.1,55.7,1006.0,93.0,1.0,2.6,67.2,0.28,21.2,29.2,"16:31:44",1
"19/08/26","16:50",0.0,31.2,56.2,1006.0,99.9,1.0,2.7,48.0,0.25,21.5,29.1,"16:42:08",1
"19/08/26","17:00",0.0,32.0,51.7,1006.2,93.8,1.1,3.1,50.4,0.23,20.9,29.2,"16:54:00",1
"19/08/26","17:10",0.0,31.7,52.5,1005.7,110.3,1.1,2.9,136.1,0.19,20.8,29.1,"17:02:08",1
"19/08/26","17:20",0.0,31.3,54.8,1006.0,111.7,0.8,2.5,155.9,0.19,21.2,29.0,"17:12:24",1
"19/08/26","17:30",0.0,31.7,52.7,1005.7,43.2,0.8,2.5,61.4,0.16,20.9,28.9,"17:20:56",1
"19/08/26","17:40",0.0,31.7,52.9,1006.0,254.1,0.2,1.2,6.5,0.10,21.0,29.0,"17:31:04",1
"19/08/26","17:50",0.0,31.4,52.6,1006.0,356.7,0.6,1.7,15.6,0.10,20.6,28.9,"17:43:20",1
"19/08/26","18:00",0.0,30.4,57.3,1005.7,144.4,1.0,2.2,172.6,0.07,21.1,28.7,"17:52:24",1
"19/08/26","18:10",0.0,29.9,58.2,1005.7,97.7,1.0,2.2,114.2,0.06,20.8,28.7,"18:02:08",1
"19/08/26","18:20",0.0,29.5,59.4,1005.2,75.7,1.1,2.9,78.1,0.02,20.8,28.7,"18:14:16",1
"19/08/26","18:30",0.0,28.9,61.2,1004.8,54.6,0.8,2.4,42.7,0.01,20.7,28.6,"18:21:04",1
"19/08/26","18:40",0.0,28.4,62.3,1004.3,8.7,0.7,2.2,40.0,0.00,20.5,28.5,"18:32:48",1
"19/08/26","18:50",0.0,28.0,63.6,1004.1,14.7,0.7,1.4,95.6,0.00,20.5,28.3,"18:45:12",1
"19/08/26","19:00",0.0,27.3,65.7,1004.8,317.0,0.6,1.8,339.7,0.00,20.4,28.3,"18:52:08",1
"19/08/26","19:10",0.0,26.6,69.5,1004.8,288.3,0.2,0.8,307.9,0.00,20.6,28.0,"19:03:36",1
"19/08/26","19:20",0.0,25.9,73.3,1005.7,256.8,0.3,1.0,332.3,0.00,20.8,28.1,"19:15:04",1
"19/08/26","19:30",0.0,25.5,76.6,1005.5,321.0,0.8,1.3,338.7,0.00,21.1,27.9,"19:27:12",1
"19/08/26","19:40",0.0,25.2,77.5,1005.2,313.5,0.7,1.0,316.7,0.00,21.0,27.8,"19:37:44",1
"19/08/26","19:50",0.0,25.1,78.8,1006.0,310.9,0.8,1.6,330.5,0.00,21.2,27.8,"19:44:24",1
"19/08/26","20:00",0.0,25.1,79.6,1006.0,322.3,0.8,1.8,333.9,0.00,21.4,27.6,"19:54:08",1
"19/08/26","20:10",0.0,24.9,79.8,1006.7,295.7,0.7,1.4,313.1,0.00,21.2,27.5,"20:06:48",1
"19/08/26","20:20",0.0,24.8,80.4,1006.7,303.1,0.8,1.4,317.1,0.00,21.2,27.4,"20:10:32",1
"19/08/26","20:30",0.0,24.9,80.1,1006.9,321.6,1.3,2.7,330.0,0.00,21.3,27.4,"20:24:40",1
"19/08/26","20:40",0.0,24.9,79.5,1007.1,336.8,1.3,2.7,331.2,0.00,21.2,27.2,"20:32:16",1
"19/08/26","20:50",0.0,24.7,79.9,1007.4,330.2,1.7,3.4,339.2,0.00,21.0,27.2,"20:48:40",1
"19/08/26","21:00",0.0,24.5,80.1,1007.6,312.1,1.1,1.9,335.6,0.00,20.9,26.9,"20:50:48",1
"19/08/26","21:10",0.0,24.4,80.3,1007.8,311.5,1.1,2.4,297.9,0.00,20.8,27.2,"21:05:36",1
"19/08/26","21:20",0.0,24.2,81.0,1008.1,324.9,1.1,1.8,334.8,0.00,20.8,27.0,"21:15:44",1
"19/08/26","21:30",0.0,23.9,81.8,1008.6,330.6,1.2,2.5,344.7,0.00,20.6,26.7,"21:22:56",1
"19/08/26","21:40",0.0,23.9,82.0,1008.1,335.9,1.6,2.6,336.9,0.00,20.7,26.6,"21:37:20",1
"19/08/26","21:50",0.0,24.0,81.4,1008.3,326.1,1.3,2.2,330.2,0.00,20.7,26.6,"21:40:40",1
"19/08/26","22:00",0.0,23.9,81.1,1008.3,324.6,1.2,2.4,319.4,0.00,20.5,26.6,"21:59:28",1
"19/08/26","22:10",0.0,23.7,81.5,1008.3,330.2,1.6,2.4,337.3,0.00,20.4,26.6,"22:03:20",1
"19/08/26","22:20",0.0,23.6,81.7,1008.3,328.1,1.5,4.0,337.8,0.00,20.3,26.3,"22:15:28",1
"19/08/26","22:30",0.0,23.5,81.6,1008.3,341.0,1.5,2.7,346.1,0.00,20.2,26.2,"22:28:16",1
"19/08/26","22:40",0.0,23.5,81.7,1008.3,333.5,1.8,2.9,342.6,0.00,20.2,26.1,"22:36:40",1
"19/08/26","22:50",0.0,23.5,81.1,1008.1,335.6,1.5,2.6,330.6,0.00,20.1,26.4,"22:42:32",1
"19/08/26","23:00",0.0,23.4,81.4,1008.1,335.5,2.0,3.2,336.7,0.00,20.1,26.1,"22:52:24",1
"19/08/26","23:10",0.0,23.3,81.9,1008.1,338.2,1.5,2.8,340.4,0.00,20.1,26.2,"23:09:28",1
"19/08/26","23:20",0.0,23.3,81.8,1008.3,337.0,1.8,2.9,340.8,0.00,20.1,26.0,"23:12:56",1
"19/08/26","23:30",0.0,22.9,82.4,1008.1,338.7,1.6,2.8,350.9,0.00,19.8,26.1,"23:26:08",1
"19/08/26","23:40",0.0,22.7,83.3,1008.1,339.6,1.6,3.3,342.0,0.00,19.8,25.9,"23:38:16",1
"19/08/26","23:50",0.0,22.7,83.8,1008.1,339.0,1.7,2.7,346.8,0.00,19.9,25.7,"23:43:36",1
"19/08/26","24:00",0.0,22.5,84.1,1007.8,333.2,1.7,2.9,317.2,0.00,19.7,25.8,"23:59:44",1
